GFSFLT2_sfc_rhum_201.txt.gz
RH
97 98 98 98 99 99 98 97 96 96 96 96 96 94 93 90 89 87 88 88 83 78 73 67 63 62 73 92 94 93 98 94
97 98 98 98 98 96 89 98 97 96 96 97 97 95 92 90 88 88 89 86 83 78 74 69 65 62 72 93 94 91 97 95
98 98 98 98 94 96 89 98 97 97 97 98 98 98 96 93 91 90 89 88 86 79 74 72 70 65 77 92 90 97 96 98
98 98 98 95 94 91 94 93 97 97 96 98 99 98 98 93 91 91 89 88 86 82 78 74 74 77 92 90 95 91 92 94
98 98 98 93 90 92 93 96 97 98 99 99 99 99 99 98 99 97 97 88 96 90 90 93 85 64 76 94 91 90 93 94
98 98 98 93 88 88 89 91 95 99 99 99 99 100 99 99 99 98 98 98 97 96 97 94 83 60 85 94 90 91 95 98
98 98 98 92 92 95 92 91 90 90 95 99 99 99 99 99 98 98 98 98 97 97 95 91 83 65 95 88 88 90 95 99
97 97 98 98 98 96 97 97 96 97 98 97 97 96 95 92 96 96 98 98 97 95 93 89 85 79 96 94 87 88 94 97
98 97 98 98 98 99 99 99 99 99 99 98 97 97 96 92 92 91 90 92 96 96 94 88 87 82 95 96 91 92 94 96
97 94 99 98 98 99 99 99 99 99 99 99 98 95 95 89 88 88 87 88 87 86 89 89 86 87 98 97 96 95 97 98
98 98 99 99 98 99 99 98 99 99 99 99 98 97 94 95 92 88 88 88 88 86 84 76 73 90 97 98 98 97 98 91
98 98 97 97 99 99 99 99 100 99 99 98 96 96 96 97 95 95 97 95 94 90 86 81 66 71 81 92 94 96 98 97
69 91 99 96 88 92 97 99 99 99 99 99 98 97 98 98 98 96 94 94 92 93 92 87 78 83 93 94 88 92 97 98
68 72 74 80 88 95 98 96 96 97 98 97 98 98 98 99 99 98 96 94 93 93 92 92 89 88 90 86 98 91 89 90
67 74 77 78 81 85 86 89 88 89 90 92 90 93 94 95 96 94 92 98 96 94 94 92 93 91 77 91 98 95 94 89
60 62 75 77 76 76 73 78 77 86 90 92 91 88 91 93 93 93 93 94 95 97 94 91 90 93 92 82 88 85 90 99
59 57 61 73 79 82 87 85 92 93 94 91 91 89 87 90 94 96 96 97 95 96 97 98 94 92 91 90 88 95 94 96
61 55 58 62 67 73 80 82 87 91 91 92 91 93 92 90 88 94 96 96 96 95 93 96 95 95 95 90 90 90 93 94
64 61 58 59 61 62 70 77 82 85 88 83 78 76 75 72 89 91 93 95 94 92 92 90 94 96 93 94 91 90 87 88
55 49 47 57 63 65 68 71 83 84 77 77 74 69 67 71 83 89 90 90 88 87 89 90 87 95 93 92 92 91 89 91

GFSFLT2_sfc_rhum_207.txt.gz
RH
82 85 87 98 96 96 95 93 93 93 93 92 93 95 92 89 89 89 88 88 83 77 71 64 63 82 93 95 94 92 62 59
90 86 83 85 82 97 96 95 94 94 94 94 94 94 92 90 90 90 89 88 83 79 73 64 61 69 93 94 94 94 59 58
89 87 83 85 84 86 94 96 95 96 92 96 93 69 72 76 81 92 90 89 86 80 76 70 63 63 87 94 94 62 60 56
84 89 88 88 81 85 81 81 81 80 79 80 75 77 73 70 80 92 91 90 88 82 79 74 66 37 39 87 66 65 63 58
80 89 89 87 83 86 88 85 89 89 85 84 84 79 77 72 71 71 73 84 67 69 66 58 61 46 42 56 62 70 62 61
79 88 89 88 83 81 83 86 92 95 94 91 90 91 87 79 71 72 75 70 72 70 65 68 65 54 49 62 69 66 65 63
85 90 87 85 89 81 85 87 87 90 96 93 93 93 91 81 78 73 71 70 69 70 68 66 66 58 46 53 64 67 69 66
83 90 86 82 85 84 85 89 92 95 95 95 94 90 93 88 80 77 74 76 71 69 68 67 66 62 51 46 53 62 68 71
84 90 87 86 83 82 87 90 92 95 95 95 95 94 90 87 90 88 76 71 75 74 75 73 69 63 59 47 48 59 64 69
76 83 88 88 88 90 92 93 94 92 91 90 90 90 91 94 82 85 81 78 76 75 78 78 78 73 65 54 50 53 62 69
83 88 92 93 94 94 93 92 94 92 90 90 91 91 93 95 92 86 87 90 92 88 90 89 89 85 77 66 57 54 55 58
82 92 96 93 92 92 94 96 93 94 97 96 96 96 96 96 96 94 94 94 95 95 94 93 88 84 77 74 67 67 66 64
90 94 97 96 97 98 99 98 89 85 85 83 86 87 94 93 95 86 84 95 93 95 97 97 98 94 94 95 90 92 80 89
93 92 91 88 89 92 89 76 72 70 71 70 70 67 69 67 66 63 62 65 65 66 70 87 88 96 96 97 98 96 97 90
72 65 68 76 79 65 62 56 61 63 68 70 69 65 66 69 66 68 67 67 67 67 66 66 72 78 93 94 98 98 96 95
55 54 52 53 50 53 57 52 51 65 69 61 54 53 52 52 56 56 61 62 65 67 67 74 73 79 85 92 91 91 96 99
60 56 53 55 55 57 55 62 68 62 59 57 58 60 56 55 59 61 66 68 68 72 73 75 77 78 73 75 90 93 95 98
58 50 52 54 52 53 54 53 55 54 56 60 56 60 63 61 59 64 65 66 67 69 72 76 76 76 76 75 77 83 85 95
53 47 46 48 49 47 50 52 56 55 57 61 60 59 60 60 62 66 61 63 66 70 74 76 78 83 82 78 74 72 70 75
45 41 43 41 43 46 50 52 50 52 56 56 57 55 54 59 65 65 66 68 70 73 77 81 83 89 84 83 82 74 70 71

GFSFLT2_sfc_rhum_210.txt.gz
RH
57 69 79 97 96 95 94 93 93 93 93 93 94 93 91 89 90 89 90 86 81 75 70 65 64 82 90 94 94 90 48 36
60 65 63 65 69 96 94 93 93 93 92 93 96 94 91 89 90 89 89 86 81 76 69 61 58 70 90 94 94 92 52 36
66 66 66 66 55 72 92 94 93 94 88 94 90 57 64 70 73 90 89 88 85 79 73 65 58 56 86 92 94 46 39 35
66 68 69 76 66 70 67 64 60 62 60 67 58 57 58 57 72 91 90 89 87 83 78 71 64 24 29 80 48 39 40 36
58 69 71 74 69 72 70 74 70 67 64 64 61 66 63 58 72 66 66 82 57 64 63 49 43 33 24 27 31 38 35 34
54 64 74 77 70 74 75 72 78 79 70 77 78 79 75 74 73 72 73 65 60 59 50 54 56 49 37 33 37 34 30 31
54 62 70 75 74 74 76 75 75 76 73 72 75 75 80 70 68 63 64 65 59 62 58 55 56 56 50 41 38 40 37 32
55 61 67 71 70 76 78 78 78 78 81 84 83 80 86 82 74 67 60 60 54 57 59 59 57 56 55 52 44 39 40 42
55 66 66 72 70 76 74 73 77 84 85 84 84 84 82 70 69 66 59 64 68 67 63 61 60 56 57 54 50 48 42 44
50 61 74 75 70 76 71 74 74 72 71 70 73 72 70 74 76 70 69 70 76 74 74 73 68 77 74 64 54 49 49 49
51 67 80 81 79 77 79 81 77 72 72 70 77 78 80 83 88 84 86 88 93 94 92 94 91 87 83 79 74 71 61 49
50 74 83 86 85 86 89 88 86 87 90 87 84 83 80 91 84 85 88 86 82 88 91 87 88 85 81 82 77 72 68 68
58 81 88 92 92 95 96 96 91 86 89 76 82 88 84 75 68 61 57 55 55 56 58 68 68 77 89 90 86 77 74 61
71 81 86 89 90 91 88 81 71 55 48 50 50 50 52 46 50 45 48 44 50 51 51 46 41 44 62 64 65 51 78 68
72 82 89 85 81 77 66 65 50 53 42 41 47 47 49 51 48 48 49 48 43 48 48 50 46 41 47 56 49 41 36 54
70 75 68 63 59 53 50 38 43 38 38 37 34 42 40 40 44 43 45 42 45 44 36 44 45 43 41 40 56 56 57 52
58 48 43 46 43 52 47 47 36 34 35 38 39 38 38 36 41 44 46 43 44 51 53 52 46 46 44 44 48 60 62 76
47 40 38 39 39 37 38 40 34 28 30 31 30 33 35 39 41 46 49 49 50 48 53 56 56 55 51 51 51 48 46 58
41 35 36 38 38 35 36 37 36 34 32 33 38 35 35 37 42 50 47 49 51 53 56 59 60 60 61 55 52 54 52 53
36 33 33 33 34 35 35 34 29 30 34 36 37 37 38 43 50 51 53 55 57 59 58 59 63 65 68 66 64 62 59 60

GFSFLT2_sfc_rhum_216.txt.gz
RH
75 78 86 94 94 94 94 94 93 93 93 93 92 93 93 92 92 90 89 87 82 77 75 73 73 78 83 89 92 92 96 74
77 74 77 82 87 95 94 93 93 93 93 94 94 94 92 91 92 91 90 86 81 77 74 70 69 74 85 88 92 92 94 66
76 73 72 71 71 83 93 92 93 93 92 93 98 82 83 84 84 92 90 88 84 80 76 72 70 67 80 87 91 82 63 58
74 75 73 72 56 78 81 78 82 84 80 86 83 79 76 65 80 92 91 89 87 83 79 76 72 57 62 89 88 67 57 52
67 75 77 73 62 78 72 71 73 77 77 78 80 72 84 77 86 84 90 92 84 84 82 76 65 59 57 66 61 58 54 51
64 70 76 79 68 73 69 68 70 72 74 79 78 80 87 88 89 81 81 80 82 80 78 75 74 63 61 64 61 57 54 56
63 68 75 76 79 78 78 72 70 72 80 79 88 90 91 91 91 91 83 78 79 78 80 79 76 72 72 67 63 61 60 60
62 66 73 73 75 81 82 81 79 84 84 78 82 92 92 91 91 92 93 91 92 84 82 82 76 81 76 76 70 65 62 64
61 68 71 75 74 79 78 72 80 85 83 86 83 86 89 87 90 92 90 92 89 88 86 78 82 82 80 81 79 79 76 68
56 56 70 77 78 76 75 76 77 82 82 80 82 81 83 88 87 87 86 87 89 89 91 92 94 95 90 92 89 85 83 82
55 63 71 76 75 74 75 84 83 76 79 81 82 82 80 88 89 89 86 92 92 93 95 96 95 94 94 91 91 90 85 72
54 62 71 75 74 75 82 83 84 82 84 85 85 87 83 88 87 89 92 90 88 90 89 94 93 92 80 81 90 87 82 80
52 66 71 74 81 84 89 88 87 88 90 88 86 88 85 88 91 89 88 88 77 77 77 72 76 74 77 75 84 79 78 79
50 67 78 77 84 81 82 83 84 83 85 89 87 86 84 82 76 70 66 68 69 70 71 78 74 71 78 75 73 63 62 72
51 76 81 83 87 88 87 83 89 91 92 90 82 72 63 63 59 62 63 63 66 70 68 68 75 71 68 74 78 72 59 48
67 79 82 88 90 93 90 84 86 77 70 68 68 62 56 54 55 56 58 63 65 67 56 77 76 77 72 57 66 64 64 62
68 76 83 92 90 86 84 74 67 65 62 67 62 58 55 45 51 56 61 68 69 70 73 75 77 80 76 74 72 72 72 69
79 87 88 88 84 79 72 66 60 55 58 60 59 62 60 54 49 59 63 67 69 73 74 75 80 80 79 77 76 78 74 74
81 78 78 77 76 63 63 62 57 59 58 58 58 56 57 58 60 66 68 68 69 73 77 80 80 82 84 81 76 76 74 77
73 70 68 62 60 57 55 53 51 50 56 52 56 52 53 60 61 64 67 69 73 77 81 83 81 84 85 82 79 78 76 77

GFSFLT2_sfc_rhum_219.txt.gz
RH
92 93 94 96 97 97 96 96 95 94 95 94 94 95 93 92 91 91 90 88 85 81 77 75 73 77 81 86 90 92 97 92
94 97 96 97 97 96 96 96 95 95 94 94 95 95 93 93 92 92 90 88 86 82 77 72 71 72 82 85 88 91 94 88
86 94 96 97 96 93 95 94 94 94 94 94 99 98 96 94 94 93 91 89 86 83 79 74 70 68 71 83 85 96 92 79
83 86 88 89 76 95 98 93 96 97 96 97 98 97 96 88 91 93 92 89 86 84 81 78 73 69 67 79 97 88 80 66
81 80 81 79 74 94 94 96 98 97 96 97 97 90 94 88 98 91 98 93 95 90 89 87 78 73 64 77 83 76 72 64
80 80 80 78 78 87 84 88 92 94 92 94 94 98 97 98 98 98 98 98 97 96 95 88 84 76 70 65 70 68 67 64
78 80 79 78 88 82 82 83 84 87 91 90 95 96 97 98 97 97 94 96 93 97 91 90 88 84 78 71 69 67 63 66
74 74 78 78 89 90 84 82 84 86 86 85 90 95 97 97 97 97 97 97 95 94 90 90 86 84 85 82 75 71 68 69
75 76 79 76 93 90 96 94 92 97 92 92 93 95 96 96 97 97 97 97 93 94 92 88 88 87 90 92 92 89 88 86
72 70 81 81 89 89 88 86 89 98 97 97 94 93 94 96 97 97 96 97 96 96 96 96 96 96 96 96 96 95 91 90
71 74 82 82 92 86 88 92 80 85 97 97 93 93 93 96 97 96 94 96 96 97 97 96 97 96 96 97 97 97 96 86
67 75 80 82 87 87 95 91 92 84 92 90 93 95 92 94 96 96 96 97 97 97 94 97 96 96 95 94 96 97 97 96
68 79 85 81 87 90 95 94 87 87 92 90 92 91 93 95 97 96 96 96 93 92 95 88 80 82 79 79 81 91 96 92
72 79 85 80 83 83 95 86 89 87 94 93 91 90 92 92 95 94 92 76 72 70 72 77 80 77 79 83 78 71 67 81
74 78 83 87 88 92 90 87 93 96 95 98 95 88 81 70 70 68 67 69 70 73 68 69 77 80 73 76 83 83 69 47
72 89 92 95 92 91 91 85 93 92 91 94 88 67 59 62 66 67 66 69 68 71 74 78 78 79 81 69 79 84 88 88
83 91 95 96 95 92 91 91 87 82 75 71 66 62 59 56 58 64 65 72 70 71 74 78 84 84 85 84 86 86 86 89
94 95 95 96 97 95 92 81 76 72 67 60 60 60 60 56 59 64 68 67 76 73 78 78 80 83 85 87 90 93 88 91
95 95 95 94 93 92 81 70 68 64 58 58 60 64 67 63 69 75 70 73 75 80 83 86 88 90 91 91 88 88 87 86
94 97 94 90 92 84 70 62 60 58 52 54 60 60 63 67 69 71 76 77 86 85 87 86 86 89 87 89 90 86 82 82

GFSFLT2_sfc_rhum_222.txt.gz
RH
97 97 96 97 97 96 96 95 94 94 94 94 94 94 94 92 92 92 90 88 85 82 80 78 76 77 79 82 86 89 95 94
98 98 98 98 97 97 96 96 95 95 94 96 96 95 93 93 92 93 91 89 86 83 79 76 74 75 79 81 83 86 91 90
97 98 98 98 98 96 97 96 95 95 95 96 97 97 96 95 94 93 92 90 87 84 80 76 73 70 70 78 82 96 91 89
94 96 97 98 88 97 98 96 96 96 96 96 98 98 98 92 94 94 93 90 88 85 82 79 76 75 69 72 94 90 86 81
90 93 96 94 87 99 99 99 99 99 98 98 99 97 98 98 99 98 98 93 96 91 91 90 84 81 72 69 76 78 80 72
88 88 90 90 88 96 97 99 99 99 98 98 99 99 99 99 99 99 99 99 97 97 98 92 89 83 75 71 69 72 74 68
87 84 84 82 92 91 94 94 96 97 98 96 97 98 98 98 99 99 99 99 98 98 97 94 92 87 85 75 70 76 72 72
85 83 80 78 88 90 87 87 92 96 95 94 96 97 98 99 99 98 99 98 98 98 98 97 97 95 91 88 86 86 82 76
86 85 82 81 88 86 87 85 90 91 91 95 94 95 95 97 98 98 97 98 97 97 96 96 95 91 88 94 95 92 93 91
82 79 84 87 87 89 86 88 90 92 93 93 92 92 94 97 98 98 98 98 98 98 97 96 95 96 96 96 96 96 95 94
81 80 86 84 93 91 92 90 90 97 97 95 94 93 94 96 98 98 97 98 98 98 98 96 98 97 97 97 97 97 95 90
76 80 86 83 94 92 98 92 96 92 96 96 96 94 94 96 98 97 97 98 98 98 95 97 94 96 96 98 97 97 97 98
78 87 91 89 95 95 96 93 93 92 93 95 95 96 95 96 98 98 97 97 97 96 96 96 96 82 76 78 80 81 81 95
80 85 91 87 88 87 91 89 93 88 90 96 91 93 92 94 96 97 97 92 93 90 77 80 80 81 75 83 73 73 71 66
80 84 91 85 86 94 98 98 98 98 92 96 96 93 94 92 95 92 83 75 76 73 71 67 73 82 78 73 77 77 85 66
77 83 90 84 88 93 95 92 95 96 95 95 96 82 74 72 71 68 70 75 70 70 74 79 76 76 83 76 82 82 89 95
76 83 88 86 91 88 93 91 95 95 98 98 80 70 64 61 62 63 67 74 71 73 75 77 81 80 85 88 90 93 93 97
81 89 91 93 90 91 90 93 98 98 98 94 72 64 62 62 62 67 71 72 77 78 79 81 78 89 84 92 94 95 96 97
96 95 94 94 95 95 93 94 94 94 91 78 64 63 65 68 68 75 77 81 81 79 83 85 89 92 88 94 94 94 95 96
96 94 95 97 95 96 93 88 90 84 77 67 58 55 64 71 72 75 78 82 83 82 84 83 85 90 90 92 93 88 91 92